Location: downtown San Diego
(32.7310°N, 117.1990°W)
Time: 19:49:50
(UTC-08:00)

Meteor 2-10 Rocket - Pass Details

Date: 12 July 2018
Orbit: 734 x 885 km, 81.2° (Epoch: 18 November)

Event Time Altitude Azimuth Distance (km) Brightness Sun altitude
Rises 21:08:36 0° 1° (N) 3,374 7.4 -13.3°
Reaches altitude 10° 21:11:08 10° 9° (N) 2,460 6.5 -13.7°
Maximum altitude 21:16:22 40° 78° (ENE) 1,256 4.3 -14.6°
Enters shadow 21:19:28 22° 133° (SE) 1,789 4.8 -15.1°
